Location: Anumalkud?ru
(16.4847°N, 80.6636°E)
Time: 23:05:51
(UTC+00:00)

Cosmos 1937 Rocket - Pass Details

Date: 11 April 2026
Orbit: 742 x 775 km, 74.0° (Epoch: 9 May)

Event Time Altitude Azimuth Distance (km) Brightness Sun altitude
Rises 14:10:07 0° 204° (SSW) 3,226 6.8 -19.1°
Reaches altitude 10° 14:12:33 10° 209° (SSW) 2,304 6.1 -19.7°
Maximum altitude 14:17:37 51° 285° (WNW) 964 4.4 -20.9°
Drops below altitude 10° 14:22:44 10° 0° (N) 2,317 6.2 -22.0°
Sets 14:25:11 0° 6° (N) 3,245 6.9 -22.6°
